Lapse_Rate
5.9 6.0 6.0 6.2 6.4 6.2 6.2 6.2 6.3 6.3 6.3 6.3 6.3 6.2 6.2 6.4 6.7 6.9 6.8 6.5 6.6 6.8 7.0 7.0 7.2 7.3 7.4 7.5 7.4 7.4 7.3 7.3 7.4 7.2 7.4 7.3 7.4 7.3 7.2 7.1 6.9 6.8 6.6
6.4 6.3 6.3 6.3 6.2 6.3 6.3 6.4 6.4 6.6 6.6 6.4 6.5 6.4 6.3 6.4 6.6 6.9 6.9 6.9 6.8 6.9 6.9 7.0 6.9 7.1 7.1 7.0 7.1 7.1 7.1 7.1 7.1 7.3 7.2 7.3 7.4 7.5 7.4 7.3 7.1 6.9 6.9
6.5 6.4 6.4 6.5 6.6 6.7 6.5 6.5 6.6 6.6 6.5 6.3 6.5 6.6 6.5 6.6 6.7 6.7 6.8 6.9 7.1 7.0 6.8 6.9 6.9 6.9 7.0 7.0 7.1 7.0 6.9 6.9 6.9 7.0 7.2 7.2 7.1 7.1 7.1 7.2 7.2 7.1 7.1
6.7 6.7 6.8 7.0 7.2 7.0 6.8 6.7 6.7 6.6 6.5 6.5 6.5 6.2 6.4 6.6 6.7 6.7 6.7 6.8 6.8 6.8 6.9 6.9 6.9 7.0 7.0 7.1 7.1 7.2 7.2 7.2 7.2 7.1 7.2 7.3 7.5 7.4 7.2 7.2 6.9 7.0 6.9
6.4 6.9 7.2 7.2 7.1 6.9 7.0 6.9 7.0 6.8 6.7 6.6 6.4 6.4 6.4 6.6 6.7 6.6 6.5 6.5 6.7 6.7 7.0 7.1 7.2 7.2 7.2 7.2 7.2 7.3 7.1 7.1 7.3 7.3 7.5 7.7 7.9 7.8 7.7 7.3 7.2 6.9 6.9
7.0 7.2 7.4 7.3 7.2 7.1 7.1 7.2 7.1 7.0 6.8 6.7 6.8 6.6 6.5 6.6 6.5 6.5 6.5 6.7 6.7 6.8 7.2 7.4 7.6 7.6 7.7 7.7 7.6 7.7 7.7 7.6 7.5 7.2 7.1 7.2 7.6 7.6 7.6 7.3 7.2 6.8 6.6
7.5 7.4 7.4 7.4 7.5 7.6 7.6 7.4 7.4 7.3 7.0 7.2 7.0 7.0 6.9 6.7 6.6 6.7 6.8 7.0 7.1 7.3 7.6 7.8 8.0 8.0 8.0 8.0 7.9 7.7 7.8 7.7 7.7 7.5 7.6 7.7 7.6 7.8 7.4 7.3 7.1 7.1 6.9
7.9 7.6 7.4 7.5 7.6 7.7 7.6 7.7 7.6 7.5 7.5 7.5 7.4 7.3 7.2 7.3 7.1 7.1 7.2 7.4 7.7 7.9 7.9 7.8 7.8 7.9 7.8 7.8 7.7 7.7 8.1 7.9 7.9 7.5 7.4 7.8 7.5 7.7 7.4 7.4 7.5 7.3 7.1
7.8 7.8 7.9 8.1 8.2 8.1 8.1 8.0 7.8 7.7 7.8 7.7 7.6 7.6 7.8 7.9 7.7 7.5 7.3 7.7 7.9 8.0 7.8 7.8 8.0 8.1 8.0 7.7 7.6 7.7 8.1 8.4 8.4 8.2 8.3 8.1 7.7 7.2 7.4 7.4 7.3 7.3 6.8
8.1 8.2 8.2 8.4 8.4 8.4 8.1 7.8 7.7 7.6 7.7 7.7 7.9 7.9 7.9 8.1 7.8 7.8 7.7 7.9 8.2 8.3 8.0 8.1 8.2 8.3 8.0 8.0 8.0 8.1 8.4 8.6 8.6 8.7 9.0 8.7 8.3 8.1 7.3 6.8 6.8 6.9 6.3
8.0 8.5 8.5 8.5 8.4 8.3 7.9 7.9 7.9 7.8 7.8 8.1 8.2 8.4 8.6 8.6 8.6 8.4 8.1 8.0 8.2 8.3 8.4 8.4 8.4 8.2 8.0 8.0 8.0 8.2 8.4 8.5 8.8 9.0 9.0 8.6 8.7 8.5 8.4 7.9 6.6 6.4 6.0
8.7 8.5 8.8 8.7 8.7 8.6 8.6 8.5 8.4 8.5 8.5 8.4 8.6 8.8 9.0 8.9 9.0 8.9 8.6 8.5 8.3 8.2 8.4 8.3 8.3 8.3 8.2 8.2 8.2 8.2 8.4 8.5 9.0 9.0 8.7 8.6 8.5 8.3 7.7 7.4 6.7 5.7 5.3
9.3 8.9 8.7 8.7 8.8 8.8 8.9 8.9 8.8 8.6 8.7 8.8 8.7 8.9 9.0 9.0 9.1 9.0 9.0 8.7 8.4 8.3 8.4 8.5 8.5 8.4 8.5 8.5 8.3 8.4 8.5 8.5 8.9 8.7 8.5 8.3 8.2 7.9 7.1 7.0 6.4 5.8 5.3
8.7 9.1 9.4 9.1 9.0 9.0 8.8 8.5 8.4 8.6 8.7 8.7 8.9 9.0 9.0 8.9 9.0 9.0 9.1 9.0 8.7 8.5 8.6 8.5 8.7 8.7 8.7 8.6 8.5 8.5 8.3 8.3 8.6 8.6 8.2 8.2 7.7 7.2 7.1 6.5 6.1 5.3 5.3
8.0 8.3 8.7 8.7 8.6 8.6 8.8 8.8 8.8 8.4 8.3 8.4 8.7 8.8 8.9 9.1 9.1 9.2 9.0 8.9 8.6 8.5 8.4 8.4 8.5 8.5 8.3 8.3 8.4 8.3 8.2 8.2 8.5 8.4 8.1 8.0 7.5 7.2 7.3 6.6 5.2 5.1 5.1
7.6 7.4 7.9 8.1 8.2 8.2 8.0 8.0 8.0 8.2 8.4 8.4 8.4 8.3 8.5 8.5 8.5 8.5 8.5 8.5 8.4 8.1 8.2 8.3 8.3 8.1 8.1 8.2 8.2 8.0 8.1 8.1 8.2 8.2 8.2 8.1 7.6 7.3 7.1 6.5 5.4 5.2 4.9
7.6 7.6 7.6 7.5 7.5 7.7 7.8 7.8 7.9 8.0 8.0 8.0 7.9 8.1 8.2 8.2 8.2 8.1 8.1 8.0 7.9 7.7 7.9 7.9 8.0 7.9 7.9 8.0 7.9 7.9 7.9 8.1 8.1 8.0 8.4 8.1 7.5 7.2 7.1 6.5 5.5 4.9 5.0
7.4 7.6 7.7 7.7 7.7 7.7 7.7 7.7 7.7 7.8 7.7 7.6 7.6 7.8 7.8 7.8 7.8 7.7 7.7 7.8 7.8 7.8 7.6 7.5 7.4 7.4 7.5 7.6 7.7 7.9 7.9 8.0 8.0 8.1 8.2 7.9 7.2 6.9 7.0 6.6 5.2 5.5 4.8
7.1 6.9 7.0 7.2 7.3 7.5 7.7 7.8 7.6 7.5 7.4 7.4 7.5 7.5 7.5 7.6 7.7 7.7 7.6 7.5 7.6 7.5 7.3 7.2 7.1 7.2 7.4 7.6 7.7 7.8 7.9 7.9 8.0 8.3 8.0 7.3 7.2 7.1 7.0 6.9 5.6 5.6 5.6
6.8 6.8 6.8 6.8 6.8 6.8 6.9 7.1 7.2 7.2 7.1 7.2 7.3 7.3 7.3 7.4 7.5 7.4 7.5 7.6 7.5 7.4 7.3 7.1 7.0 7.1 7.3 7.5 7.7 7.8 7.7 7.8 8.1 8.0 7.5 7.2 7.2 7.1 7.1 6.9 5.9 5.5 5.6
6.6 6.5 6.6 6.9 7.0 6.9 6.9 6.9 7.0 7.1 7.1 7.1 7.2 7.1 7.1 7.4 7.3 7.2 7.2 7.4 7.3 7.1 7.1 7.0 7.0 7.3 7.4 7.4 7.6 7.6 7.6 7.9 7.8 7.4 7.0 7.0 7.0 6.9 6.8 6.4 6.1 6.0 5.8
6.6 6.5 6.4 6.8 7.1 7.0 7.0 7.1 7.0 7.1 7.1 7.1 7.0 7.2 7.1 7.1 6.9 6.8 6.9 6.9 6.9 7.0 7.0 7.0 7.1 7.2 7.2 7.4 7.5 7.6 7.7 7.5 7.2 6.9 6.7 6.7 6.5 6.4 6.5 6.3 6.2 6.4 6.0
7.1 7.2 7.2 7.2 7.3 7.4 7.3 7.2 7.2 7.1 6.9 6.9 7.0 6.9 7.0 6.6 6.7 6.7 6.8 6.8 6.8 6.9 7.0 7.0 7.0 7.0 7.2 7.2 7.4 7.5 7.4 7.0 6.8 6.5 6.4 6.1 6.1 6.1 5.9 5.9 5.8 5.9 6.0
7.6 7.8 7.7 7.5 7.6 7.7 7.6 7.6 7.3 7.0 6.8 6.3 6.4 5.6 5.2 5.7 5.6 5.9 6.1 6.0 6.3 6.7 6.9 7.0 7.0 7.0 7.1 7.2 7.3 7.1 6.7 6.4 6.2 6.4 6.0 5.7 5.6 5.8 5.5 5.5 5.4 5.4 5.6
7.6 7.6 7.8 7.5 7.4 7.2 7.1 6.9 6.8 6.7 5.9 5.6 5.4 5.4 5.2 5.7 5.5 5.3 5.5 5.9 6.1 6.2 6.3 6.4 6.5 6.6 6.6 6.6 6.4 6.1 5.9 5.8 6.1 5.9 5.9 6.0 5.9 5.6 5.3 5.4 5.6 5.4 5.3
7.9 7.6 7.5 7.0 6.3 5.4 5.4 5.2 5.1 5.0 5.0 5.4 5.0 5.2 5.4 5.1 5.1 5.2 5.4 5.7 5.7 5.7 5.7 5.8 5.7 5.8 5.7 5.7 5.5 5.5 5.6 5.7 5.8 5.8 5.6 5.6 5.4 5.3 5.4 5.4 5.2 5.0 4.8
Wind_Speed
19 18 16 14 13 12 11 11 11 9 9 9 7 7 8 9 8 8 8 8 9 8 6 6 8 6 5 4 3 3 3 3 4 3 3 2 4 6 8 17 18 19 20
18 18 17 14 13 13 13 11 11 12 8 8 7 8 9 10 10 11 11 11 11 10 10 7 9 5 7 5 4 6 5 5 4 7 3 3 6 6 5 6 12 17 18
18 17 16 15 14 14 14 13 10 12 11 8 9 9 9 10 10 11 12 12 11 12 11 10 11 7 8 5 5 6 5 4 5 4 7 3 4 3 4 4 5 10 15
17 17 17 16 16 15 14 14 13 13 12 11 11 12 12 11 11 10 11 12 12 11 11 11 11 10 12 10 8 9 6 5 4 5 7 6 4 4 3 4 5 4 9
17 17 18 17 16 15 15 15 14 13 15 14 14 12 12 13 10 12 12 12 12 12 11 11 12 14 18 15 9 11 8 7 7 7 9 4 5 4 6 5 9 8 8
19 20 18 15 15 16 15 15 13 14 14 13 14 15 14 11 15 18 15 12 13 13 13 12 12 14 15 17 18 20 14 11 11 8 10 11 14 8 8 10 6 7 7
19 16 15 15 15 16 14 14 14 14 12 14 14 14 16 16 17 18 19 14 12 13 14 14 12 10 12 13 15 18 18 17 20 15 14 14 16 12 12 10 11 9 12
16 16 15 15 15 15 15 15 14 13 14 14 14 15 15 14 15 18 18 16 14 14 15 15 15 15 12 11 12 12 13 14 14 13 19 21 18 16 11 10 10 9 5
15 16 16 16 16 15 16 16 15 13 12 14 14 15 16 15 16 18 14 13 15 17 15 14 14 15 13 13 12 13 15 13 14 24 25 26 24 20 9 1 4 6 11
15 17 15 14 15 16 16 16 14 12 13 11 13 14 16 15 15 17 16 11 14 11 14 15 16 15 12 15 14 14 16 14 14 12 8 13 18 19 17 13 12 11 11
8 9 10 13 14 14 12 11 11 12 11 12 13 12 14 14 15 17 19 13 11 10 11 10 10 14 18 18 18 14 16 15 13 9 9 7 7 8 8 9 10 10 11
8 11 14 13 11 11 14 12 12 11 12 12 11 11 10 12 14 15 19 22 15 12 12 9 9 14 16 16 13 17 16 6 6 7 8 7 5 7 8 8 9 10 13
5 6 7 9 12 12 12 12 10 11 11 10 10 10 9 7 8 15 19 19 21 13 11 12 13 12 11 10 12 8 4 3 4 4 6 7 6 7 5 3 4 4 6
7 6 4 4 5 5 6 8 8 9 10 10 9 9 8 7 6 5 7 9 16 10 11 11 5 4 5 5 4 4 4 3 3 4 5 5 5 2 2 3 2 5 5
6 5 5 3 3 5 3 3 7 7 7 9 9 8 8 7 8 12 11 8 9 11 10 3 3 3 3 4 3 3 3 3 3 3 3 3 4 1 0 3 3 3 3
5 4 3 2 1 2 4 3 5 3 4 4 6 6 6 8 12 16 16 14 15 11 3 4 6 6 6 5 4 3 3 3 2 2 2 3 1 2 3 3 3 4 5
5 5 4 3 2 3 3 5 6 1 5 4 1 5 10 7 13 12 13 10 6 9 4 5 6 5 4 4 4 3 3 3 3 3 2 0 3 4 3 3 4 4 4
5 7 4 4 4 4 5 6 6 6 6 3 5 4 1 8 9 10 10 11 3 4 3 4 4 5 4 4 4 3 4 3 2 3 3 3 4 4 4 3 4 6 7
6 4 4 4 4 6 4 4 4 5 4 3 2 3 5 7 8 8 7 3 4 4 3 3 4 4 4 4 4 4 4 4 4 3 4 4 5 5 5 5 4 6 6
7 9 8 4 4 6 5 5 4 4 4 4 5 4 5 3 3 2 1 2 3 3 4 4 4 4 4 4 4 4 4 3 3 3 4 4 5 5 7 7 6 7 4
8 6 8 5 4 5 5 7 7 7 6 6 4 4 6 4 5 4 3 3 3 3 4 4 4 4 4 4 4 4 4 3 4 4 3 3 3 4 3 5 6 5 6
10 8 5 5 4 4 5 5 6 6 7 7 5 4 3 2 4 4 3 3 3 3 3 4 4 4 4 4 4 4 4 5 3 3 3 4 4 4 4 4 5 4 5
11 10 6 4 4 5 5 5 4 6 6 7 8 6 4 3 4 4 3 3 3 3 2 3 3 3 3 4 4 4 5 5 5 4 4 4 4 4 4 4 5 4 5
10 8 5 4 4 5 5 6 7 8 8 8 6 6 5 3 4 4 4 3 3 4 4 3 1 3 4 3 3 5 5 5 6 5 6 5 4 5 4 3 4 5 4
8 6 6 6 6 6 7 7 7 9 8 8 8 7 6 6 6 6 5 5 5 6 7 6 6 8 8 7 6 6 3 2 4 7 5 6 7 8 5 4 5 4 5
9 9 8 6 5 7 8 9 8 9 9 7 8 10 9 6 9 7 7 7 7 7 8 6 8 11 10 10 11 11 11 9 2 9 7 5 5 5 5 7 9 6 8
Wind_Direction
193 195 199 200 197 199 197 198 199 199 203 211 200 194 196 209 201 199 205 208 208 225 219 213 230 210 229 217 206 206 215 171 240 279 245 264 224 223 230 222 226 223 230
193 194 197 194 190 197 205 205 198 203 199 196 193 197 205 211 204 209 213 215 214 223 228 210 233 223 234 223 211 221 213 199 199 264 254 249 219 224 236 220 224 228 230
191 195 196 198 193 198 202 203 195 205 205 197 199 206 206 213 211 212 216 216 213 221 228 220 230 209 237 229 221 229 218 210 203 221 266 244 248 218 239 235 218 228 230
191 194 197 198 200 202 203 202 202 204 204 204 206 215 213 213 214 209 215 220 219 219 222 223 228 218 231 228 228 235 226 217 207 228 253 261 230 228 209 227 248 217 238
189 195 202 200 199 202 206 204 206 202 211 210 215 214 214 218 215 210 212 217 220 225 223 226 228 226 226 227 229 239 223 223 234 235 252 240 247 232 224 227 237 240 234
193 199 201 196 197 205 207 207 204 206 209 208 212 216 216 222 219 208 210 216 218 224 232 233 233 229 231 227 225 233 227 227 239 237 254 256 258 241 245 237 226 242 259
195 197 198 197 201 205 205 205 207 207 203 209 214 214 221 223 218 213 211 225 223 224 229 235 239 236 225 236 234 236 244 237 238 250 254 248 262 250 247 242 245 234 240
190 194 193 196 200 201 203 207 209 205 206 207 214 216 221 227 209 213 214 224 233 233 231 233 237 241 233 224 234 240 237 239 235 238 245 259 257 259 240 240 243 243 257
193 196 197 197 200 197 203 206 210 208 207 212 216 215 218 226 210 208 201 222 231 237 237 234 234 239 234 216 233 243 251 253 235 235 239 247 255 263 269 148 241 240 253
192 198 195 197 202 202 205 207 209 209 216 215 220 220 220 225 211 204 199 219 231 235 240 241 234 236 216 212 226 239 253 256 254 249 243 251 253 261 249 240 255 244 253
174 170 181 194 202 204 205 205 207 209 213 217 222 222 224 217 223 201 201 218 229 236 240 242 239 218 224 221 216 234 241 252 260 263 265 260 242 245 251 234 234 239 253
166 177 192 194 190 197 197 200 204 201 209 217 220 227 226 224 213 205 203 212 217 230 238 240 237 220 221 220 219 233 246 269 268 272 279 282 256 243 245 234 226 230 239
141 178 186 196 206 204 198 202 200 204 211 216 220 226 230 221 220 206 204 213 225 237 240 240 231 227 221 228 228 229 180 219 231 249 266 269 266 275 259 249 219 155 115
77 71 100 173 192 195 202 201 202 204 210 217 218 223 224 220 204 188 209 220 233 239 256 260 245 197 204 175 146 181 177 198 205 228 244 264 280 291 266 213 166 134 116
50 57 50 50 155 188 170 205 213 211 212 209 217 211 208 214 206 197 199 207 215 222 225 215 199 194 200 193 184 180 182 188 208 227 249 277 269 262 89 58 78 86 104
2 7 15 34 336 233 182 196 54 342 327 311 273 226 211 222 181 202 210 210 209 152 167 205 220 213 216 194 183 185 177 196 208 223 246 266 303 113 85 67 75 104 126
327 326 320 324 288 200 196 201 226 93 67 70 334 251 236 223 202 210 211 217 150 153 210 207 218 194 180 178 173 161 160 168 163 169 208 124 109 107 119 116 123 124 101
290 287 288 273 261 243 205 208 202 197 213 197 55 26 325 206 196 195 152 122 117 231 186 190 186 163 164 167 157 156 155 151 154 160 194 170 144 143 139 128 142 143 139
297 277 271 279 280 268 236 202 198 195 196 149 135 72 77 109 123 135 170 172 167 177 174 168 156 153 160 159 156 151 158 180 177 180 186 169 156 153 143 138 134 138 124
276 258 246 245 263 274 237 205 191 190 172 166 180 172 163 145 148 154 124 150 157 152 159 157 159 155 151 146 154 162 174 175 184 204 186 167 156 161 156 150 158 156 158
272 257 248 261 239 243 229 208 197 184 183 178 177 158 175 153 149 157 156 150 143 151 160 153 153 146 153 171 162 158 176 181 195 211 167 136 136 153 151 157 163 151 148
261 256 235 239 232 234 222 193 188 180 170 157 142 133 176 147 138 141 140 141 146 144 149 149 152 165 172 170 164 168 183 190 177 180 153 146 145 149 149 159 165 159 155
248 251 233 197 177 169 147 139 141 144 139 136 140 140 152 145 120 113 119 133 150 158 175 164 160 167 177 180 175 175 175 187 191 180 173 163 165 171 172 173 177 156 158
237 229 179 161 142 137 132 131 123 117 123 117 117 121 108 98 100 83 71 51 67 54 38 44 74 177 180 188 192 195 194 188 190 193 176 166 177 165 160 155 168 172 170
198 143 124 125 121 116 105 99 102 95 99 101 93 76 68 86 61 71 54 58 59 61 47 31 18 34 42 40 30 23 29 161 186 177 167 170 173 175 186 190 174 173 162
61 73 74 64 88 104 97 99 83 89 78 72 83 81 88 47 73 64 55 58 65 63 61 48 40 41 37 32 21 17 16 357 185 187 178 178 172 180 187 201 195 192 195